TimeCST,TemperatureF,Dew PointF,Humidity,Sea Level PressureIn,VisibilityMPH,Wind Direction,Wind SpeedMPH,Gust SpeedMPH,PrecipitationIn,Events,Conditions,WindDirDegrees,DateUTC
12:15 AM,-0.2,-3.3,87,29.99,10.0,WNW,3.5,-,N/A,,Clear,290,2014-02-15 06:15:00
12:35 AM,-3.5,-6.3,87,29.98,10.0,WNW,3.5,-,N/A,,Clear,300,2014-02-15 06:35:00
12:55 AM,-4.5,-7.8,86,29.99,10.0,WNW,4.6,-,N/A,,Clear,290,2014-02-15 06:55:00
1:15 AM,-5.4,-9.2,84,29.99,10.0,WNW,3.5,-,N/A,,Clear,290,2014-02-15 07:15:00
1:35 AM,-5.1,-8.5,85,30.01,10.0,WNW,4.6,-,N/A,,Clear,290,2014-02-15 07:35:00
1:55 AM,-4.4,-8.0,84,30.01,10.0,WNW,4.6,-,N/A,,Clear,290,2014-02-15 07:55:00
2:15 AM,-4.9,-8.3,85,30.02,10.0,WNW,6.9,-,N/A,,Clear,290,2014-02-15 08:15:00
2:35 AM,-4.2,-7.8,84,30.04,10.0,West,4.6,-,N/A,,Clear,280,2014-02-15 08:35:00
2:55 AM,-6.2,-10.3,82,30.05,10.0,West,4.6,-,N/A,,Clear,270,2014-02-15 08:55:00
3:15 AM,-6.3,-10.3,83,30.05,10.0,West,6.9,-,N/A,,Clear,280,2014-02-15 09:15:00
3:35 AM,-5.4,-9.2,84,30.05,10.0,West,5.8,-,N/A,,Clear,280,2014-02-15 09:35:00
3:55 AM,-6.3,-10.3,83,30.06,10.0,West,4.6,-,N/A,,Clear,280,2014-02-15 09:55:00
4:15 AM,-5.8,-9.6,84,30.07,10.0,Calm,Calm,-,N/A,,Clear,0,2014-02-15 10:15:00
4:35 AM,-7.8,-11.9,82,30.07,10.0,Calm,Calm,-,N/A,,Clear,0,2014-02-15 10:35:00
4:55 AM,-9.2,-13.7,81,30.07,10.0,Calm,Calm,-,N/A,,Clear,0,2014-02-15 10:55:00
5:15 AM,-14.4,-19.3,79,30.08,10.0,Calm,Calm,-,N/A,,Clear,0,2014-02-15 11:15:00
5:35 AM,-10.1,-14.6,81,30.08,10.0,Calm,Calm,-,N/A,,Clear,0,2014-02-15 11:35:00
5:55 AM,-7.8,-11.9,82,30.08,5.0,Calm,Calm,-,N/A,,Clear,0,2014-02-15 11:55:00
6:15 AM,-9.0,-13.4,81,30.09,10.0,Calm,Calm,-,N/A,,Clear,0,2014-02-15 12:15:00
6:35 AM,-8.7,-13.0,81,30.09,10.0,Calm,Calm,-,N/A,,Clear,0,2014-02-15 12:35:00
6:55 AM,-8.5,-12.6,82,30.10,7.0,Calm,Calm,-,N/A,,Clear,0,2014-02-15 12:55:00
7:15 AM,-11.9,-16.8,79,30.11,7.0,Calm,Calm,-,N/A,,Clear,0,2014-02-15 13:15:00
7:35 AM,-7.8,-11.7,83,30.11,4.0,Calm,Calm,-,N/A,,Scattered Clouds,0,2014-02-15 13:35:00
7:55 AM,-8.5,-13.0,81,30.12,1.2,Calm,Calm,-,N/A,Snow,Light Snow,0,2014-02-15 13:55:00
8:15 AM,-2.6,-5.8,86,30.12,10.0,Calm,Calm,-,N/A,,Clear,0,2014-02-15 14:15:00
8:35 AM,0.7,-2.6,86,30.14,10.0,Calm,Calm,-,N/A,,Clear,0,2014-02-15 14:35:00
8:55 AM,2.3,-1.1,86,30.14,4.0,Calm,Calm,-,N/A,Snow,Light Snow,0,2014-02-15 14:55:00
9:15 AM,2.8,-0.6,86,30.14,10.0,Calm,Calm,-,N/A,,Clear,0,2014-02-15 15:15:00
9:35 AM,4.8,1.8,87,30.14,10.0,Calm,Calm,-,N/A,,Clear,0,2014-02-15 15:35:00
9:55 AM,4.6,1.4,86,30.17,10.0,West,5.8,-,N/A,,Clear,270,2014-02-15 15:55:00
10:15 AM,5.7,2.5,86,30.17,10.0,West,5.8,-,N/A,,Clear,270,2014-02-15 16:15:00
10:35 AM,7.5,4.5,87,30.17,10.0,Calm,Calm,-,N/A,,Clear,0,2014-02-15 16:35:00
10:55 AM,8.6,5.5,87,30.17,10.0,Calm,Calm,-,N/A,,Clear,0,2014-02-15 16:55:00
11:15 AM,9.1,5.0,83,30.16,10.0,Calm,Calm,-,N/A,,Clear,0,2014-02-15 17:15:00
11:35 AM,10.2,4.6,78,30.14,10.0,Calm,Calm,-,N/A,,Clear,0,2014-02-15 17:35:00
11:55 AM,12.2,5.2,73,30.14,10.0,Calm,Calm,-,N/A,,Clear,0,2014-02-15 17:55:00
12:15 PM,13.6,5.7,71,30.14,10.0,Calm,Calm,-,N/A,,Clear,0,2014-02-15 18:15:00
12:35 PM,13.5,6.3,73,30.14,10.0,Calm,Calm,-,N/A,,Clear,0,2014-02-15 18:35:00
12:55 PM,13.3,5.9,72,30.13,10.0,Calm,Calm,-,N/A,,Clear,0,2014-02-15 18:55:00
1:15 PM,13.5,6.8,75,30.12,10.0,Calm,Calm,-,N/A,,Clear,0,2014-02-15 19:15:00
1:35 PM,14.0,7.7,76,30.12,10.0,Calm,Calm,-,N/A,,Clear,0,2014-02-15 19:35:00
1:55 PM,14.9,8.4,76,30.12,10.0,Calm,Calm,-,N/A,,Scattered Clouds,0,2014-02-15 19:55:00
2:15 PM,17.1,10.6,76,30.10,10.0,Calm,Calm,-,N/A,,Scattered Clouds,0,2014-02-15 20:15:00
2:35 PM,17.2,10.9,76,30.09,10.0,Calm,Calm,-,N/A,,Mostly Cloudy,0,2014-02-15 20:35:00
2:55 PM,17.8,11.7,77,30.11,10.0,South,5.8,-,N/A,,Overcast,190,2014-02-15 20:55:00
3:15 PM,19.9,11.8,71,30.10,10.0,South,5.8,-,N/A,,Overcast,180,2014-02-15 21:15:00
3:35 PM,19.4,12.2,74,30.10,10.0,South,6.9,-,N/A,,Overcast,170,2014-02-15 21:35:00
3:55 PM,19.8,12.0,72,30.08,10.0,SSE,5.8,-,N/A,,Overcast,160,2014-02-15 21:55:00
4:15 PM,19.4,12.9,76,30.07,10.0,SSE,4.6,-,N/A,,Overcast,150,2014-02-15 22:15:00
4:35 PM,19.4,12.7,75,30.06,10.0,SSE,8.1,-,N/A,,Overcast,150,2014-02-15 22:35:00
4:55 PM,19.4,12.7,75,30.06,10.0,SSE,8.1,-,N/A,,Overcast,150,2014-02-15 22:55:00
5:15 PM,19.8,12.6,74,30.05,10.0,SSE,8.1,-,N/A,,Overcast,160,2014-02-15 23:15:00
5:35 PM,19.8,13.3,76,30.04,10.0,SSE,9.2,-,N/A,,Overcast,150,2014-02-15 23:35:00
5:55 PM,19.9,13.5,76,30.04,10.0,SE,9.2,-,N/A,,Overcast,140,2014-02-15 23:55:00
6:15 PM,20.1,14.4,78,30.05,10.0,SSE,9.2,-,N/A,,Overcast,150,2014-02-16 00:15:00
6:35 PM,20.1,14.9,80,30.05,7.0,SSE,10.4,-,N/A,Snow,Light Snow,150,2014-02-16 00:35:00
6:55 PM,19.8,15.8,85,30.05,2.5,South,10.4,-,N/A,Snow,Light Snow,170,2014-02-16 00:55:00
7:15 PM,19.4,16.7,89,30.05,1.8,South,10.4,-,N/A,Snow,Light Snow,180,2014-02-16 01:15:00
7:35 PM,19.4,17.1,91,30.05,2.5,South,6.9,-,N/A,Snow,Light Snow,170,2014-02-16 01:35:00
7:55 PM,19.8,17.6,91,30.03,1.5,SSE,6.9,-,N/A,Snow,Light Snow,160,2014-02-16 01:55:00
8:15 PM,20.3,18.1,91,30.03,2.0,SSE,9.2,-,N/A,Snow,Light Snow,160,2014-02-16 02:15:00
8:35 PM,20.5,18.3,91,30.02,1.8,SE,6.9,-,N/A,Snow,Light Snow,130,2014-02-16 02:35:00
8:55 PM,20.7,18.5,91,30.01,10.0,SSE,8.1,-,N/A,,Overcast,150,2014-02-16 02:55:00
9:15 PM,21.2,19.0,91,30.01,10.0,SSE,10.4,-,N/A,,Overcast,160,2014-02-16 03:15:00
9:35 PM,22.1,19.4,89,30.01,10.0,South,11.5,-,N/A,,Overcast,170,2014-02-16 03:35:00
9:55 PM,22.1,19.4,89,30.01,10.0,SSE,9.2,-,N/A,Snow,Light Snow,160,2014-02-16 03:55:00
10:15 PM,22.3,19.6,89,30.01,10.0,SSE,8.1,-,N/A,,Overcast,160,2014-02-16 04:15:00
10:35 PM,22.6,19.9,89,30.00,10.0,South,9.2,-,N/A,,Overcast,170,2014-02-16 04:35:00
10:55 PM,23.0,20.3,89,29.99,10.0,South,9.2,-,N/A,,Overcast,190,2014-02-16 04:55:00
11:15 PM,23.5,20.5,88,29.99,10.0,South,8.1,-,N/A,,Overcast,180,2014-02-16 05:15:00
11:35 PM,24.3,20.8,87,29.98,10.0,SSW,11.5,-,N/A,,Overcast,200,2014-02-16 05:35:00
11:55 PM,24.6,20.7,85,29.99,10.0,SSW,9.2,-,N/A,,Overcast,210,2014-02-16 05:55:00